Wind_Speed
36 40 46 52 59 68 78 89 99 107 108 110 112 114 115 112 111 110 111 100 104 99 93 84 80 75 70 71 70 68 66 61 59 57 54 52 54 51
29 32 38 45 50 57 66 76 84 96 106 111 116 116 114 117 115 112 115 109 106 108 102 92 86 83 78 70 68 67 67 68 67 66 61 59 58 58
24 25 28 36 43 48 56 65 74 82 93 100 106 112 114 116 118 120 119 117 110 110 110 101 90 86 86 79 73 67 68 72 70 68 67 65 65 62
17 21 23 27 35 42 48 56 63 72 80 88 94 102 106 112 117 120 123 120 118 113 114 110 101 93 87 80 83 80 74 73 74 72 72 68 67 72
11 13 15 19 26 34 40 48 55 64 72 79 83 92 99 105 112 118 121 122 121 117 116 116 113 97 97 95 90 89 85 80 74 74 75 76 72 74
11 11 9 10 18 26 33 40 47 54 60 67 74 82 91 101 107 113 115 117 120 120 118 119 116 111 105 103 105 100 93 87 78 78 76 74 76 74
12 10 10 9 6 13 23 30 38 44 50 56 64 71 80 89 98 103 110 113 117 121 123 121 121 119 112 110 108 109 105 95 93 86 86 72 70 80
13 10 9 7 9 6 10 16 26 33 39 45 53 60 68 75 84 95 102 109 112 112 120 123 123 125 117 117 114 114 111 102 98 97 95 91 85 92
16 14 13 12 12 9 9 11 13 17 27 36 43 47 52 60 67 75 89 100 108 113 116 122 126 126 127 120 120 116 117 116 110 108 109 100 97 103
22 21 17 13 14 14 12 12 12 14 17 20 25 34 40 47 51 60 70 81 94 107 114 120 126 129 130 129 129 125 124 121 121 117 114 113 107 107
26 24 22 22 20 19 19 19 18 18 18 19 19 23 25 28 39 48 58 66 77 89 103 114 122 127 131 132 134 134 132 129 126 125 125 120 121 120
35 33 31 30 28 27 28 27 28 28 27 26 27 27 28 29 33 36 42 52 65 76 89 101 114 124 129 134 135 138 138 141 135 132 131 128 125 127
41 42 41 37 37 36 35 36 35 36 35 35 36 36 36 37 38 37 41 44 50 62 76 90 103 112 121 129 135 138 141 141 142 142 140 140 138 133
43 44 44 45 44 44 44 44 45 44 43 45 46 46 47 48 48 49 49 50 53 56 64 75 91 103 114 121 129 136 142 144 147 147 149 147 145 145
55 54 53 52 52 51 49 50 50 51 54 55 56 56 57 59 60 60 61 62 62 62 65 70 77 87 102 114 123 130 139 142 145 148 153 157 160 153
60 60 59 58 56 56 58 60 61 63 64 65 66 67 67 68 71 73 74 75 74 75 75 77 79 84 90 99 112 123 132 139 142 146 151 154 156 160
67 65 61 61 63 65 67 70 72 73 72 71 73 74 76 79 82 83 84 85 85 84 86 89 90 91 94 97 103 110 120 129 137 144 148 153 155 154
69 69 69 71 71 73 76 79 79 78 77 78 78 79 79 80 80 81 84 86 88 89 90 92 93 96 98 101 104 107 113 119 127 133 138 143 149 153
70 72 76 79 80 80 80 80 79 79 78 78 76 75 76 77 77 79 80 83 85 87 90 90 91 92 94 98 104 105 110 114 117 122 127 133 135 139
70 74 78 80 79 80 81 81 80 79 78 78 78 78 78 78 78 77 77 78 79 81 84 86 89 91 93 95 99 103 101 107 114 115 117 120 124 126
70 73 75 76 76 77 78 78 78 78 79 79 79 79 79 78 77 77 78 78 79 80 82 84 86 87 89 91 94 98 103 100 99 104 109 112 114 114
73 74 74 74 75 76 76 77 77 78 78 78 79 79 79 79 79 79 79 79 79 80 81 81 82 83 83 85 87 90 95 99 99 98 99 100 102 108
73 73 73 74 75 75 75 77 78 79 80 80 80 79 78 78 78 77 78 77 77 77 77 78 79 79 80 80 81 84 87 91 94 95 95 95 97 97
Wind_Direction
255 246 240 237 233 230 228 230 231 231 231 230 229 230 231 231 232 233 233 236 233 232 232 235 235 235 235 236 242 249 249 249 252 253 258 261 263 258
265 253 245 241 235 230 227 228 228 230 231 232 233 231 230 232 232 232 233 234 233 232 232 233 236 238 237 232 236 241 245 249 249 252 253 253 260 262
269 259 244 239 237 232 228 226 226 228 229 229 231 234 232 232 233 231 232 233 232 232 232 231 235 235 238 238 237 238 243 247 248 248 251 253 253 253
283 270 255 239 235 233 229 228 227 228 229 230 230 230 231 231 232 232 231 231 231 231 231 231 232 234 232 234 235 236 235 241 244 245 247 249 252 253
295 282 266 250 237 234 231 228 230 231 231 232 231 231 230 231 232 232 231 230 231 231 230 232 233 232 231 231 233 230 231 233 237 243 245 246 242 252
324 327 317 272 241 233 230 229 229 229 231 235 234 233 233 233 232 233 234 233 232 231 230 231 234 233 233 232 235 235 232 235 232 238 241 242 245 250
302 310 322 314 278 243 235 233 233 233 234 235 237 237 236 234 235 235 234 234 234 232 231 231 231 234 234 234 235 236 235 233 231 235 234 229 235 233
284 293 297 292 287 278 252 244 237 233 237 241 242 241 240 240 237 235 236 236 235 235 233 231 232 234 234 235 235 235 234 232 230 231 234 239 240 230
263 269 277 284 284 263 254 259 257 247 242 241 242 245 245 242 240 239 236 234 235 234 233 232 234 235 235 234 235 233 234 234 231 230 232 235 234 238
251 245 251 259 264 268 273 271 259 252 248 251 254 252 248 245 241 238 238 236 235 232 233 233 234 235 237 236 235 234 234 234 235 234 232 233 231 236
258 260 259 260 256 254 251 250 249 254 261 261 256 252 255 255 251 243 237 234 235 233 232 231 233 235 236 236 236 235 236 236 234 235 238 234 236 235
257 257 259 259 259 263 264 261 258 255 249 252 255 261 264 263 256 250 247 242 235 234 232 232 232 233 236 237 237 237 237 238 237 236 237 238 237 238
257 258 259 258 259 259 260 261 261 260 262 264 265 266 264 264 263 261 257 250 241 237 235 234 232 234 236 237 238 237 240 240 240 238 237 240 241 240
256 258 260 260 259 260 260 260 259 258 259 260 261 261 262 262 261 261 260 258 254 248 240 238 236 235 236 237 239 239 240 240 242 242 240 239 239 240
259 260 260 259 259 262 262 262 263 262 263 263 261 262 261 261 262 262 261 260 259 255 252 248 244 239 238 238 239 240 242 241 243 243 243 242 242 242
262 262 263 265 268 269 269 270 268 266 265 265 266 266 265 265 263 261 259 257 256 256 256 254 250 248 244 241 240 241 241 243 243 244 244 245 244 245
264 267 271 271 270 270 269 268 269 269 270 272 271 268 268 268 268 266 264 262 259 256 254 253 252 250 248 246 244 243 244 243 243 245 245 246 248 249
269 271 272 273 271 270 271 273 275 277 276 275 275 274 273 271 270 268 266 265 265 264 262 259 256 254 253 251 250 249 247 246 247 246 246 248 248 249
270 272 271 271 272 274 275 276 275 277 277 275 274 273 272 271 269 267 265 264 265 265 265 264 263 261 260 256 253 248 251 251 250 251 250 250 249 250
270 271 272 274 275 276 277 277 278 279 279 279 279 278 277 276 275 273 271 269 266 264 262 262 262 262 262 261 260 259 251 249 252 253 253 253 253 253
273 273 273 274 275 276 277 278 279 279 279 279 279 279 279 278 277 276 275 273 271 269 268 266 264 262 261 261 261 261 262 259 255 253 254 254 255 254
272 274 275 276 276 277 280 281 281 281 282 281 281 281 281 280 280 279 278 276 274 273 270 269 267 265 263 262 260 259 260 262 262 259 257 256 254 254
274 275 276 277 279 280 281 281 281 282 282 282 282 282 282 281 280 280 279 277 276 275 274 273 271 269 267 265 262 260 260 260 261 261 260 258 258 257
Height
10292 10298 10302 10309 10319 10331 10343 10352 10362 10374 10386 10399 10410 10418 10434 10451 10464 10479 10496 10508 10522 10532 10540 10547 10551 10559 10563 10570 10576 10579 10582 10586 10589 10592 10596 10599 10601 10603
10283 10287 10293 10297 10305 10314 10324 10332 10341 10352 10365 10376 10382 10394 10413 10426 10441 10456 10469 10484 10496 10508 10518 10527 10535 10543 10548 10551 10559 10565 10569 10572 10574 10578 10580 10584 10587 10591
10275 10277 10282 10285 10290 10298 10306 10314 10323 10332 10340 10349 10362 10374 10393 10405 10416 10429 10444 10459 10471 10482 10493 10505 10514 10524 10532 10537 10542 10548 10552 10556 10559 10562 10565 10568 10570 10575
10271 10271 10273 10277 10280 10284 10291 10298 10307 10313 10319 10329 10340 10352 10365 10379 10389 10402 10419 10433 10445 10456 10469 10481 10491 10504 10514 10522 10523 10527 10531 10537 10542 10546 10549 10552 10552 10556
10268 10267 10267 10270 10273 10276 10280 10286 10292 10299 10305 10311 10324 10334 10344 10356 10366 10377 10390 10406 10419 10432 10444 10455 10467 10481 10491 10497 10501 10499 10508 10513 10525 10528 10532 10536 10542 10539
10268 10266 10265 10265 10267 10270 10273 10277 10281 10285 10291 10297 10305 10315 10324 10333 10343 10356 10371 10383 10395 10407 10420 10432 10443 10456 10464 10472 10480 10483 10487 10498 10503 10508 10513 10518 10522 10523
10267 10266 10265 10264 10265 10265 10267 10270 10273 10276 10280 10285 10289 10296 10303 10313 10323 10336 10346 10357 10370 10383 10397 10407 10421 10433 10440 10449 10458 10462 10467 10475 10480 10484 10490 10496 10502 10506
10265 10265 10264 10264 10264 10263 10263 10265 10267 10269 10272 10275 10277 10281 10287 10295 10303 10313 10321 10333 10347 10362 10371 10384 10393 10404 10415 10424 10430 10439 10446 10451 10455 10463 10469 10474 10480 10483
10263 10262 10261 10261 10262 10263 10263 10263 10263 10263 10265 10266 10267 10269 10272 10278 10285 10292 10298 10308 10319 10330 10343 10358 10366 10375 10388 10397 10404 10413 10419 10422 10428 10434 10440 10448 10455 10457
10258 10258 10258 10258 10258 10258 10258 10258 10259 10260 10260 10261 10260 10261 10261 10263 10267 10272 10278 10285 10295 10303 10315 10328 10336 10346 10354 10369 10375 10383 10388 10396 10402 10408 10414 10421 10426 10433
10250 10251 10252 10252 10252 10253 10253 10254 10254 10254 10254 10254 10254 10254 10253 10253 10254 10256 10260 10264 10271 10278 10289 10298 10307 10314 10323 10333 10342 10351 10360 10367 10372 10382 10387 10392 10399 10405
10242 10242 10243 10243 10244 10244 10244 10245 10245 10246 10246 10246 10245 10245 10245 10244 10244 10244 10246 10249 10253 10257 10264 10273 10279 10284 10292 10300 10310 10316 10325 10334 10346 10354 10359 10364 10371 10379
10231 10231 10232 10233 10233 10234 10234 10234 10234 10235 10235 10235 10235 10235 10235 10234 10234 10234 10233 10233 10235 10239 10244 10249 10252 10258 10264 10270 10277 10284 10294 10302 10312 10320 10327 10334 10342 10346
10218 10218 10219 10220 10220 10221 10222 10222 10223 10223 10223 10223 10222 10222 10222 10222 10221 10221 10221 10220 10220 10221 10223 10224 10229 10232 10237 10241 10246 10251 10258 10266 10271 10284 10293 10299 10305 10311
10205 10205 10204 10205 10206 10207 10208 10209 10208 10208 10207 10207 10207 10206 10205 10205 10205 10204 10203 10203 10202 10203 10203 10202 10204 10207 10209 10213 10215 10219 10221 10230 10236 10243 10249 10259 10267 10275
10187 10188 10190 10192 10194 10195 10193 10191 10189 10188 10188 10187 10187 10185 10185 10183 10182 10181 10181 10181 10181 10181 10180 10179 10176 10176 10179 10181 10183 10185 10189 10190 10197 10204 10208 10214 10224 10233
10171 10172 10176 10178 10177 10175 10172 10169 10167 10166 10166 10166 10166 10163 10161 10159 10155 10153 10151 10150 10150 10152 10153 10151 10149 10147 10148 10148 10150 10153 10154 10156 10161 10164 10172 10175 10178 10191
10154 10156 10157 10157 10154 10151 10149 10146 10144 10143 10141 10139 10137 10135 10132 10129 10128 10126 10122 10120 10118 10117 10118 10117 10117 10117 10117 10118 10119 10119 10120 10123 10125 10129 10132 10138 10142 10143
10136 10134 10132 10130 10127 10124 10123 10120 10118 10116 10114 10110 10108 10105 10103 10099 10096 10094 10091 10088 10087 10086 10084 10082 10081 10081 10080 10080 10078 10089 10087 10085 10090 10091 10093 10100 10106 10104
10114 10111 10108 10105 10102 10100 10097 10094 10091 10089 10086 10083 10080 10076 10073 10070 10066 10063 10060 10058 10055 10053 10052 10052 10051 10048 10047 10045 10042 10036 10052 10056 10054 10057 10059 10064 10068 10074
10091 10087 10085 10083 10080 10078 10074 10071 10069 10065 10061 10058 10054 10050 10045 10041 10038 10035 10030 10027 10025 10021 10018 10017 10016 10017 10017 10016 10013 10009 10001 10012 10024 10025 10025 10029 10031 10037
10067 10064 10063 10060 10057 10053 10051 10047 10043 10039 10034 10030 10027 10022 10017 10013 10009 10004 10000 9996 9993 9989 9986 9984 9983 9982 9983 9983 9982 9981 9977 9972 9977 9984 9991 9993 9998 9999
10044 10041 10039 10037 10033 10031 10027 10022 10017 10013 10007 10003 9999 9994 9989 9985 9980 9976 9970 9967 9963 9959 9956 9953 9950 9950 9949 9949 9950 9950 9949 9946 9945 9948 9954 9960 9962 9965